sat.trackr.live / text

‹ back to catalog

STARLINK-33546

NORAD 62287 · 2024-237W

PAYLOAD ACTIVE UNKNOWN

§ Identity

Operator
Country
US
Launch date
2024-12-08
Launch site
AFETR
Launch vehicle
Mass (kg)
RCS (m²)

Purposes: comms

External: N2YO · Heavens-Above · Gunter

§ Orbital elements

Epoch: 2026-09-21T05:00:28.042560Z

Period
94.27 min
Inclination
43.0011°
Eccentricity
0.0001737
Mean motion
15.27595271 rev/d
Perigee alt
481.8 km
Apogee alt
484.2 km
Semi-major
6,861.1 km
B*
5.8128e-4
RAAN
192.2017°
Arg perigee
272.7036°
Mean anomaly
87.3617°
Rev number
10,100

§ Raw data

STARLINK-335461 62287U 24237W   26264.20865790  .00015775  00000+0  58128-3 0  99912 62287  43.0011 192.2017 0001737 272.7036  87.3617 15.27595271101001

JSON: /api/v1/satellites/62287 · /tle

For live sub-satellite position, see the globe view (requires WebGL).

§ Visibility from observer

Set your observer location to see the next 7 days of passes ≥ 10°. The values pass through the URL so the page stays shareable.

No JS? Fill the form by hand. The geolocation button needs JavaScript.